Change the Weather History Date:

Tuesday, June 25, 2013

  Actual Average Record
Temperature  
Mean Temperature 57 °F -  
Max Temperature 62 °F 72 °F - ()
Min Temperature 52 °F 54 °F - ()
Degree Days  
Heating Degree Days 8    
Growing Degree Days 7 (Base 50)    
Moisture  
Dew Point 48 °F    
Average Humidity 72    
Maximum Humidity 94    
Minimum Humidity 44    
Precipitation  
Precipitation 0.01 in - - ()
Sea Level Pressure  
Sea Level Pressure 30.30 in    
Wind  
Wind Speed 7 mph ()    
Max Wind Speed 14 mph    
Max Gust Speed -    
Visibility 7.4 miles    
Events Rain    
T = Trace of Precipitation, MM = Missing Value Source: Averaged Metar Reports

Daily Weather History Graph

Daily Weather History Graph

Search for Another Location

Airport or City:

Trip Planner

Search our weather history database for the weather conditions in past years. The results will help you decide how hot, cold, wet, or windy it might be!

Date:

Astronomy

Jun. 25, 2013 Rise Set
Actual Time 5:17 AM CEST 9:53 PM CEST
Civil Twilight 4:30 AM CEST 10:40 PM CEST
Nautical Twilight 3:17 AM CEST 11:52 PM CEST
Astronomical Twilight 2:07 AM CEST 1:03 AM CEST
Moon 11:04 PM CEST (6/25) 7:56 AM CEST (6/25)
Length of Visible Light 18h 09m
Length of Day
16h 35m
Waning Gibbous, 94% of the Moon is Illuminated
Jun 25
Waning Gibbous
Jun 30
Last Quarter
Jul 8
New
Jul 16
First Quarter
Jul 22
Full

Hourly Weather History & Observations

Time (CEST) Temp. Dew Point Humidity Pressure Visibility Wind Dir Wind Speed Gust Speed Precip Events Conditions
12:00 AM 54 °F 52 °F 92% 30.25 in 12 mi West 6.7 mph - -   Mostly Cloudy
12:20 AM 53.6 °F 51.8 °F 94% 30.24 in 6.2 mi West 8.1 mph - N/A   Mostly Cloudy
12:50 AM 53.6 °F 51.8 °F 94% 30.24 in 5.0 mi West 6.9 mph - N/A   Mostly Cloudy
1:00 AM 54 °F 52 °F 91% 30.25 in 5 mi West 6.7 mph - -   Overcast
1:20 AM 53.6 °F 51.8 °F 94% 30.24 in 5.6 mi West 6.9 mph - N/A   Mostly Cloudy
1:50 AM 53.6 °F 51.8 °F 94% 30.24 in 6.2 mi WNW 6.9 mph - N/A   Mostly Cloudy
2:00 AM 54 °F 52 °F 89% 30.26 in 9 mi West 6.7 mph - -   Partly Cloudy
2:20 AM 53.6 °F 50.0 °F 88% 30.24 in 6.2 mi WNW 8.1 mph - N/A   Mostly Cloudy
2:50 AM 53.6 °F 50.0 °F 88% 30.24 in 6.2 mi WNW 8.1 mph - N/A   Mostly Cloudy
3:00 AM 53 °F 50 °F 87% 30.26 in 12 mi WNW 6.7 mph - -   Overcast
3:20 AM 53.6 °F 50.0 °F 88% 30.24 in 6.2 mi WNW 6.9 mph - N/A   Mostly Cloudy
3:50 AM 53.6 °F 50.0 °F 88% 30.27 in 6.2 mi WNW 6.9 mph - N/A   Mostly Cloudy
4:00 AM 53 °F 50 °F 86% 30.27 in 16 mi WNW 6.7 mph - -   Mostly Cloudy
4:20 AM 53.6 °F 50.0 °F 88% 30.27 in 6.2 mi WNW 6.9 mph - N/A   Mostly Cloudy
4:50 AM 53.6 °F 50.0 °F 88% 30.27 in 6.2 mi WNW 5.8 mph - N/A   Mostly Cloudy
5:20 AM 51.8 °F 50.0 °F 94% 30.27 in 6.2 mi WNW 5.8 mph - N/A   Mostly Cloudy
5:50 AM 51.8 °F 50.0 °F 94% 30.27 in 5.6 mi WNW 8.1 mph - N/A   Mostly Cloudy
6:00 AM 52 °F 50 °F 89% 30.28 in 6 mi WNW 6.7 mph - -   Mostly Cloudy
6:20 AM 51.8 °F 50.0 °F 94% 30.27 in 5.6 mi WNW 6.9 mph - N/A Rain Light Rain
6:50 AM 53.6 °F 50.0 °F 88% 30.27 in 5.6 mi NW 5.8 mph - N/A Rain Light Rain
7:00 AM 53 °F 50 °F 87% 30.29 in 6 mi NW 4.5 mph - - Rain Light Rain
7:20 AM 53.6 °F 50.0 °F 88% 30.27 in 5.6 mi NW 5.8 mph - N/A   Mostly Cloudy
7:50 AM 53.6 °F 50.0 °F 88% 30.27 in 5.6 mi NW 9.2 mph - N/A   Mostly Cloudy
8:00 AM 53 °F 50 °F 85% 30.30 in 6 mi NW 8.9 mph - - Rain Light Rain
8:20 AM 53.6 °F 50.0 °F 88% 30.30 in 6.2 mi NW 9.2 mph - N/A Rain Light Rain
8:50 AM 53.6 °F 50.0 °F 88% 30.30 in 6.2 mi NW 9.2 mph - N/A Rain Light Rain
9:00 AM 54 °F 51 °F 84% 30.31 in 6 mi NW 8.9 mph - - Rain Light Rain
9:20 AM 55.4 °F 50.0 °F 82% 30.30 in 6.2 mi NW 9.2 mph - N/A   Mostly Cloudy
9:50 AM 55.4 °F 50.0 °F 82% 30.30 in 6.2 mi NNW 8.1 mph - N/A   Mostly Cloudy
10:00 AM 56 °F 50 °F 74% 30.31 in 12 mi NW 6.7 mph - - Rain Light Rain
10:20 AM 57.2 °F 50.0 °F 77% 30.30 in 6.2 mi NNW 9.2 mph - N/A   Mostly Cloudy
10:50 AM 57.2 °F 50.0 °F 77% 30.30 in 6.2 mi NNW 8.1 mph - N/A   Mostly Cloudy
11:20 AM 57.2 °F 48.2 °F 72% 30.30 in 6.2 mi North 11.5 mph - N/A   Mostly Cloudy
11:50 AM 59.0 °F 48.2 °F 67% 30.30 in 6.2 mi NNW 10.4 mph - N/A   Mostly Cloudy
12:00 PM 59 °F 47 °F 56% 30.32 in 19 mi NNW 11.2 mph - -   Partly Cloudy
12:20 PM 59.0 °F 48.2 °F 67% 30.30 in 6.2 mi NNW 8.1 mph - N/A   Mostly Cloudy
12:50 PM 59.0 °F 50.0 °F 72% 30.30 in 6.2 mi NW 6.9 mph - N/A   Mostly Cloudy
1:00 PM 58 °F 50 °F 66% 30.32 in 19 mi NW 6.7 mph - - Rain Light Rain Showers
1:20 PM 59.0 °F 46.4 °F 63% 30.30 in 6.2 mi NW 8.1 mph - N/A   Mostly Cloudy
1:50 PM 59.0 °F 48.2 °F 67% 30.33 in 6.2 mi NNW 9.2 mph - N/A   Mostly Cloudy
2:00 PM 58 °F 47 °F 57% 30.33 in 25 mi NNW 8.9 mph - - Rain Light Rain Showers
2:20 PM 57.2 °F 44.6 °F 63% 30.33 in 6.2 mi NNW 8.1 mph - N/A   Mostly Cloudy
2:50 PM 59.0 °F 46.4 °F 63% 30.33 in 6.2 mi NW 6.9 mph - N/A   Mostly Cloudy
3:00 PM 59 °F 45 °F 50% 30.33 in 22 mi NW 6.7 mph - -   Mostly Cloudy
3:20 PM 59.0 °F 44.6 °F 59% 30.33 in 6.2 mi NW 6.9 mph - N/A   Mostly Cloudy
3:50 PM 60.8 °F 46.4 °F 59% 30.33 in 6.2 mi NW 9.2 mph - N/A   Mostly Cloudy
4:00 PM 61 °F 46 °F 48% 30.33 in 28 mi NNW 8.9 mph - -   Mostly Cloudy
4:20 PM 60.8 °F 42.8 °F 52% 30.33 in 6.2 mi NNW 11.5 mph - N/A   Mostly Cloudy
4:50 PM 60.8 °F 41.0 °F 48% 30.33 in 6.2 mi NNW 11.5 mph - N/A   Mostly Cloudy
5:20 PM 60.8 °F 42.8 °F 52% 30.33 in 6.2 mi North 10.4 mph - N/A   Scattered Clouds
5:50 PM 60.8 °F 44.6 °F 55% 30.33 in 6.2 mi NNW 13.8 mph - N/A   Mostly Cloudy
6:00 PM 60 °F 44 °F 45% 30.34 in 28 mi NNW 11.2 mph - -   Mostly Cloudy
6:20 PM 59.0 °F 44.6 °F 59% 30.33 in 6.2 mi NNW 6.9 mph - N/A   Mostly Cloudy
6:50 PM 59.0 °F 44.6 °F 59% 30.33 in 6.2 mi NNW 9.2 mph - N/A   Mostly Cloudy
7:00 PM 60 °F 45 °F 46% 30.34 in 28 mi NNW 8.9 mph - -   Mostly Cloudy
7:20 PM 59.0 °F 41.0 °F 51% 30.33 in 6.2 mi NNW 12.7 mph - N/A   Mostly Cloudy
7:50 PM 59.0 °F 42.8 °F 55% 30.33 in 6.2 mi North 10.4 mph - N/A   Mostly Cloudy
8:00 PM 59 °F 43 °F 44% 30.34 in 28 mi NNW 11.2 mph - -   Mostly Cloudy
8:20 PM 59.0 °F 42.8 °F 55% 30.33 in 6.2 mi NNW 12.7 mph - N/A   Mostly Cloudy
8:50 PM 59.0 °F 42.8 °F 55% 30.33 in 6.2 mi NNW 5.8 mph - N/A   Mostly Cloudy
9:00 PM 58 °F 44 °F 48% 30.35 in 19 mi NNW 4.5 mph - -   Mostly Cloudy
9:20 PM 59.0 °F 42.8 °F 55% 30.33 in 6.2 mi NNW 8.1 mph - N/A   Mostly Cloudy
9:50 PM 57.2 °F 44.6 °F 63% 30.36 in 6.2 mi NNW 9.2 mph - N/A   Mostly Cloudy
10:00 PM 56 °F 45 °F 57% 30.36 in 19 mi North 4.5 mph - -   Mostly Cloudy
10:20 PM 55.4 °F 44.6 °F 67% 30.36 in 6.2 mi North 5.8 mph - N/A   Mostly Cloudy
10:50 PM 55.4 °F 44.6 °F 67% 30.36 in 6.2 mi North 4.6 mph - N/A   Mostly Cloudy
11:20 PM 53.6 °F 44.6 °F 72% 30.36 in - North 5.8 mph - N/A   Clear
11:50 PM 53.6 °F 42.8 °F 67% 30.39 in - NNW 3.5 mph - N/A   Clear